Home > Weather > Bloemfontein > Past weeks

Flag for South Africa Past Weather in Bloemfontein, South Africa — Yesterday and Last 2 Weeks

Now
52 °F

Scattered clouds.


Feels Like: 49 °F
Forecast: 31 / 58 °F
Wind: 8 mph from Southwest

Location: Bloemfontein Airport

Current Time: Jul 29, 2016 at 12:22:41 PM

Latest Report: Jul 29, 2016 at 12:00 PM


Visibility: N/A

Pressure: 30.24 "Hg (25.56 "Hg at 1397m altitude)

Humidity: 67%

Dew Point: 41 °F

Location of BloemfonteinLocation

Past Weather in Bloemfontein — Graph

°F

Bloemfontein Temperature Yesterday

Maximum temperature yesterday: 52 °F (at 1:00 PM)
Minimum temperature yesterday: 37 °F (at 7:00 AM)
Average temperature yesterday: 45 °F

High & Low Weather Summary for the Past Weeks

 TemperatureHumidityPressure
High72 °F (Jul 20, 2:00 PM)100% (Jul 27, 3:00 AM)30.45 "Hg (Jul 27, 3:00 AM)
Low28 °F (Jul 23, 7:00 AM)11% (Jul 21, 5:00 PM)30.01 "Hg (Jul 26, 2:00 AM)
Average47 °F55%30.22 "Hg
* Reported Jul 14 11:00 AM — Jul 29 11:00 AM, Bloemfontein, Weather by CustomWeather, © 2016

Note: Actual official high and low records may vary slightly from our data, if they occured in-between our weather recording intervals... More about our weather records

Advertising

Bloemfontein Weather History for the Previous 24 Hours

Scroll right to see more
 ConditionsComfort  
Time TempWeatherWind HumidityBarometerVisibility
11:00 AM
Fri, Jul 29
52 °FScattered clouds.6 mph67%30.24 "HgN/A
10:00 AM50 °FScattered clouds.8 mph67%30.27 "HgN/A
9:00 AM46 °FSunny.7 mph76%30.24 "Hg10 mi
8:45 AM46 °FSunny.6 mph82%30.24 "Hg10 mi
8:00 AM39 °FPassing clouds.3 mph93%30.24 "HgN/A
7:00 AM39 °FPassing clouds.3 mph93%30.21 "HgN/A
6:00 AM39 °FScattered clouds.2 mph100%30.21 "HgN/A
5:00 AM39 °FPassing clouds.5 mph100%30.18 "HgN/A
4:00 AM37 °FChilly.1 mph100%30.21 "HgN/A
3:00 AM37 °FChilly.5 mph93%30.18 "HgN/A
2:00 AM36 °FChilly.2 mph100%30.21 "HgN/A
1:00 AM36 °FChilly.2 mph100%30.21 "HgN/A
12:00 AM39 °FChilly.5 mph93%30.21 "HgN/A
11:00 PM
Thu, Jul 28
37 °FChilly.3 mph93%30.21 "HgN/A
10:00 PM43 °FQuite cool.2 mph87%30.18 "HgN/A
9:00 PM46 °FCool.3 mph76%30.18 "HgN/A
8:00 PM48 °FPassing clouds.7 mph76%30.18 "HgN/A
7:00 PM48 °FPassing clouds.5 mph76%30.15 "HgN/A
6:00 PM50 °FPartly cloudy.7 mph71%30.12 "HgN/A
5:00 PM52 °FPartly cloudy.10 mph62%30.12 "HgN/A
3:00 PM52 °FBroken clouds.14 mph62%30.12 "HgN/A
2:00 PM52 °FBroken clouds.14 mph67%30.09 "HgN/A
1:00 PM52 °FBroken clouds.15 mph62%30.12 "HgN/A
12:00 PM50 °FPartly sunny.12 mph67%30.12 "HgN/A
Weather by CustomWeather, © 2016

See weather overviewHow to use our weather pages